Погода в Сео-де-Уржели

Испания     42°21′23″N   1°27′20″E
темп.,
°C
ветер,
м/с
пор.,
м/с
влажн.,
%
обл.,
%
осадки,
мм/ч
давл.,
гПа
погр.,
м
13 июня, вс
вс1323:00+15всв227193 0.0 102417
02:00+13св217840 0.0 102514
05:00+12ссв22814 0.0 102425
08:00+15с22700 0.0 102486
11:00+23з11435 0.0 10221166
14:00+26юз22342 0.0 10202377
17:00+27ю223074 0.0 10192705
20:00+19св346598 0.0 102172
14 июня, пн
пн1423:00+16всв2268100 0.0 102215
02:00+15св2274100 0.0 102215
05:00+14ссв2276100 0.0 102222
08:00+17ссв226861 0.0 102267
11:00+25юз11380 0.0 10201282
14:00+27юз33293 0.0 10192900
17:00+27з122860 0.0 10172556
20:00+16ссв348097 0.6 1022126
15 июня, вт
вт1523:00+14св32800 0.1 102337
02:00+13ссв32695 0.1 102230
05:00+13св32607 0.0 102127
08:00+17св22550 0.0 102056
11:00+24ююз22360 0.0 10191325
14:00+27юз33294 0.0 10182841
17:00+27ююз33233 0.0 10163203
20:00+23ююв23415 0.0 1017282
16 июня, ср
ср1623:00+15в22610 0.0 102014
02:00+14св2263100 0.0 101914
05:00+14св2260100 0.0 101818
08:00+17св225430 0.0 101754
11:00+24ююз2330100 0.0 10151307
14:00+26ююз463038 0.0 10152538
17:00+25юз3536100 0.0 10142348
20:00+22ююв2350100 0.0 1013233
17 июня, чт
чт1723:00+16вюв1166100 0.0 101712
02:00+14всв2269100 0.0 101722
05:00+14всв2265100 0.0 101528
08:00+16вюв2258100 0.0 101560
11:00+19ююв2348100 0.0 1014745
14:00+19ю3451100 0.1 10141029
17:00+19ююв51768100 1.5 10122099
20:00+15ю488698 5.0 10141033